N4RCT Weather Reports


Display with metric or nautical units.
time (UTC)temp
F
wind
direction
speed
MPH
gust
MPH
rain 1hr
in
rain 24hr
in
rain mn
in
humidity
%
barometer
mb
20260508010006 59 123 0.0 0.0 0.00 1.21 1.21 97 1013.5
20260508005503 59 131 0.0 0.0 0.00 1.21 1.21 97 1013.5
20260508005000 59 135 0.0 0.0 0.00 1.21 1.21 96 1013.2
20260508004455 60 123 0.0 0.0 0.00 1.21 1.21 96 1013.3
20260508003952 60 123 0.0 0.0 0.00 1.21 1.21 96 1013.0
20260508003449 60 136 0.0 0.0 0.00 1.21 1.21 96 1013.2
20260508002946 61 136 0.0 0.0 0.00 1.21 1.21 95 1013.3
20260508002442 61 136 0.0 0.0 0.00 1.21 1.21 94 1013.5
20260508001938 61 130 0.0 0.0 0.00 1.21 1.21 92 1013.1
20260508001435 62 129 0.0 0.0 0.00 1.21 1.21 91 1013.1
20260508000931 62 129 0.0 0.0 0.00 1.21 1.21 90 1013.2
20260508000427 62 129 0.0 0.0 0.00 1.21 1.21 89 1013.1
20260507235924 62 128 0.0 0.0 0.00 1.21 1.21 89 1012.9
20260507235421 62 130 0.0 0.0 0.00 1.21 1.21 89 1012.8
20260507234919 63 128 0.0 0.0 0.00 1.21 1.21 89 1012.8
20260507234415 63 120 0.0 0.0 0.00 1.21 1.21 88 1012.7
20260507233911 64 120 0.0 0.0 0.00 1.21 1.21 89 1012.7
20260507233409 64 120 0.0 0.0 0.00 1.21 1.21 89 1012.7
20260507232908 64 118 0.0 0.0 0.00 1.21 1.21 89 1012.8
20260507232403 64 119 0.0 0.0 0.00 1.21 1.21 89 1012.6
20260507231901 64 120 0.0 0.0 0.00 1.21 1.21 89 1012.9
20260507231357 65 120 0.0 0.0 0.00 1.21 1.21 88 1012.9
20260507230853 65 117 0.0 0.0 0.00 1.21 1.21 86 1012.8
20260507230351 65 118 0.0 0.0 0.00 1.21 1.21 87 1012.8
20260507225850 65 124 0.0 0.0 0.00 1.21 1.21 88 1012.7
20260507225347 65 120 0.0 0.0 0.00 1.21 1.21 86 1012.8
20260507224843 65 119 0.0 0.0 0.00 1.21 1.21 86 1012.6
20260507224340 65 125 0.0 0.0 0.00 1.21 1.21 87 1012.8
20260507223836 65 133 0.0 0.0 0.00 1.21 1.21 84 1012.6
20260507223332 66 153 0.0 0.0 0.00 1.21 1.21 86 1012.7
20260507222830 66 122 0.0 0.0 0.00 1.21 1.21 84 1012.6
20260507222326 66 123 0.0 0.0 0.00 1.21 1.21 84 1012.5
20260507221823 66 120 0.0 0.0 0.00 1.21 1.21 85 1012.5
20260507221319 66 119 0.0 0.0 0.00 1.21 1.21 83 1012.4
20260507220815 66 131 0.0 0.0 0.00 1.21 1.21 86 1012.3
20260507220314 67 110 0.0 0.0 0.00 1.21 1.21 82 1012.2
20260507215810 67 101 0.0 0.0 0.00 1.21 1.21 81 1012.4
20260507215307 67 98 0.0 1.0 0.00 1.21 1.21 80 1012.5
20260507214804 67 108 0.0 0.0 0.00 1.21 1.21 82 1012.3
20260507214302 67 119 0.0 0.0 0.00 1.21 1.21 84 1012.2
20260507213756 67 97 2.0 2.0 0.00 1.21 1.21 83 1012.2
20260507213254 67 144 0.0 1.0 0.00 1.21 1.21 84 1012.2
20260507212750 68 147 0.0 0.0 0.00 1.21 1.21 81 1012.2
20260507212247 68 103 0.0 0.0 0.00 1.21 1.21 81 1012.1
20260507211743 68 100 0.0 0.0 0.00 1.21 1.21 80 1012.2
20260507211240 67 156 0.0 0.0 0.00 1.21 1.21 81 1012.0
20260507210737 67 170 0.0 0.0 0.00 1.21 1.21 84 1012.0
20260507210234 67 120 1.0 1.0 0.00 1.21 1.21 83 1011.9
20260507205730 67 66 0.0 1.0 0.00 1.21 1.21 82 1011.8
20260507205227 67 160 1.0 1.0 0.00 1.21 1.21 83 1011.9
20260507204723 67 148 0.0 0.0 0.00 1.21 1.21 84 1011.9
20260507204221 67 62 1.0 1.0 0.00 1.21 1.21 84 1011.9
20260507203719 68 117 0.0 0.0 0.00 1.21 1.21 82 1012.1
20260507203216 68 111 0.0 0.0 0.00 1.21 1.21 82 1012.0
20260507202712 67 91 0.0 0.0 0.00 1.21 1.21 82 1012.0
20260507202208 67 120 0.0 0.0 0.00 1.21 1.21 83 1011.7
20260507201703 67 130 0.0 0.0 0.00 1.21 1.21 81 1011.8
20260507201200 67 89 1.0 1.0 0.00 1.21 1.21 80 1011.9
20260507200656 67 50 1.0 1.0 0.00 1.21 1.21 79 1011.9
20260507200152 67 63 0.0 1.0 0.00 1.21 1.21 79 1012.0
20260507195649 67 105 0.0 0.0 0.00 1.21 1.21 78 1012.0
20260507195146 67 96 0.0 0.0 0.00 1.21 1.21 79 1012.3
20260507194643 68 32 1.0 1.0 0.00 1.21 1.21 78 1012.2
20260507194138 67 122 0.0 0.0 0.00 1.21 1.21 79 1012.2
20260507193636 67 63 1.0 2.0 0.00 1.21 1.21 81 1012.4
20260507193133 68 173 3.0 3.0 0.00 1.21 1.21 78 1011.9
20260507192629 68 118 2.0 2.0 0.00 1.21 1.21 82 1012.1
20260507192126 68 154 2.0 2.0 0.00 1.21 1.21 80 1012.2
20260507191621 68 201 2.0 3.0 0.00 1.21 1.21 82 1012.5
20260507191118 68 138 1.0 1.0 0.00 1.21 1.21 83 1012.3
20260507190616 67 182 1.0 1.0 0.00 1.21 1.21 84 1012.4
20260507190115 67 124 0.0 0.0 0.00 1.21 1.21 86 1012.4
20260507185613 66 157 0.0 1.0 0.00 1.21 1.21 81 1012.5
20260507185109 67 181 3.0 3.0 0.00 1.21 1.21 85 1012.4
20260507184607 67 173 2.0 3.0 0.00 1.21 1.21 85 1012.4
20260507184104 67 176 0.0 1.0 0.00 1.21 1.21 84 1012.5
20260507183600 67 56 1.0 1.0 0.00 1.21 1.21 84 1012.2
20260507183058 67 148 0.0 1.0 0.00 1.21 1.21 84 1012.5
20260507182554 67 100 0.0 0.0 0.00 1.21 1.21 85 1012.6
20260507182050 65 97 0.0 0.0 0.00 1.21 1.21 86 1012.7
20260507181547 64 61 1.0 1.0 0.00 1.21 1.21 86 1013.0
20260507181043 64 34 1.0 2.0 0.00 1.21 1.21 86 1012.8
20260507180539 64 126 0.0 0.0 0.00 1.21 1.21 88 1012.9
20260507180037 64 148 0.0 0.0 0.00 1.21 1.21 88 1012.9
20260507175532 64 39 0.0 1.0 0.00 1.21 1.21 86 1013.1
20260507175031 63 86 1.0 1.0 0.00 1.21 1.21 89 1013.2
20260507174527 63 151 0.0 1.0 0.00 1.21 1.21 90 1013.5
20260507174025 62 134 0.0 0.0 0.00 1.21 1.21 90 1013.3
20260507173522 63 89 1.0 2.0 0.00 1.21 1.21 90 1013.2
20260507173019 65 185 3.0 3.0 0.00 1.21 1.21 89 1012.9
20260507172515 64 159 1.0 2.0 0.00 1.21 1.21 88 1012.7
20260507172012 62 122 0.0 1.0 0.00 1.21 1.21 92 1012.7
20260507171507 61 72 0.0 0.0 0.00 1.21 1.21 93 1012.9
20260507171005 60 81 0.0 1.0 0.00 1.21 1.21 94 1012.8
20260507170502 60 57 0.0 1.0 0.00 1.21 1.21 94 1013.0
20260507165958 61 87 2.0 2.0 0.00 1.21 1.21 94 1013.0
20260507165454 61 74 2.0 2.0 0.00 1.21 1.21 95 1013.2
20260507164950 61 60 0.0 1.0 0.00 1.21 1.21 94 1013.1
20260507164447 61 110 0.0 0.0 0.00 1.21 1.21 95 1013.0
20260507163944 61 351 1.0 2.0 0.00 1.21 1.21 94 1012.9
20260507163441 61 159 0.0 0.0 0.00 1.21 1.21 95 1013.0
20260507162938 62 204 1.0 1.0 0.00 1.21 1.21 94 1013.1
20260507162433 62 162 0.0 0.0 0.00 1.21 1.21 94 1013.1
20260507161931 63 150 0.0 0.0 0.00 1.21 1.21 93 1013.0
20260507161428 63 75 0.0 0.0 0.00 1.21 1.21 92 1012.8
20260507160924 64 105 1.0 1.0 0.00 1.21 1.21 91 1012.5
20260507160420 64 136 0.0 0.0 0.00 1.21 1.21 93 1012.4
20260507155916 65 171 1.0 1.0 0.00 1.21 1.21 93 1012.3
20260507155412 65 151 0.0 1.0 0.00 1.21 1.21 94 1012.2
20260507154909 64 151 0.0 1.0 0.00 1.21 1.21 96 1012.1
20260507154406 64 24 1.0 2.0 0.00 1.21 1.21 95 1012.2
20260507153953 63 107 0.0 0.0 0.00 1.21 1.21 96 1012.4
20260507153903 63 107 0.0 0.0 0.00 1.21 1.21 96 1012.4
20260507153627 63 154 0.0 0.0 0.00 1.21 1.21 97 1012.4
20260507153359 63 154 0.0 0.0 0.00 1.21 1.21 97 1012.4
20260507152856 63 129 1.0 1.0 0.00 1.21 1.21 98 1012.2
20260507152732 63 112 2.0 2.0 0.00 1.21 1.21 98 1012.2
20260507152352 62 122 0.0 0.0 0.00 1.21 1.21 98 1012.3
20260507151848 63 112 2.0 2.0 0.00 1.21 1.21 98 1012.2
20260507151344 63 66 0.0 1.0 0.00 1.21 1.21 99 1012.1
20260507150842 63 58 1.0 2.0 0.00 1.21 1.21 99 1012.0
20260507150338 62 80 1.0 2.0 0.00 1.21 1.21 99 1011.7
20260507145834 62 145 0.0 0.0 0.00 1.21 1.21 99 1011.6
20260507145331 62 70 0.0 1.0 0.00 1.21 1.21 99 1011.9
20260507144828 62 106 1.0 2.0 0.00 1.21 1.21 99 1011.7
20260507144320 62 46 3.0 5.0 0.00 1.21 1.21 99 1011.6
20260507143816 62 105 0.0 0.0 0.00 1.21 1.21 99 1012.0
20260507143314 63 153 0.0 0.0 0.00 1.21 1.21 99 1012.0
20260507142809 62 132 0.0 0.0 0.00 1.21 1.21 99 1011.6
20260507142307 62 120 0.0 0.0 0.00 1.21 1.21 99 1011.6
20260507141803 62 102 0.0 0.0 0.00 1.21 1.21 99 1011.7
20260507141300 63 141 0.0 0.0 0.00 1.21 1.21 99 1011.9
20260507140756 63 213 1.0 2.0 0.00 1.21 1.21 99 1011.9
20260507140253 63 116 0.0 0.0 0.00 1.21 1.21 99 1012.0
20260507135750 63 133 0.0 0.0 0.00 1.21 1.21 99 1011.9
20260507135248 63 112 0.0 0.0 0.00 1.21 1.21 99 1011.8
20260507134744 63 158 0.0 0.0 0.00 1.21 1.21 99 1011.8
20260507134241 64 117 0.0 0.0 0.00 1.21 1.21 99 1011.8
20260507133736 64 130 0.0 0.0 0.00 1.21 1.21 99 1011.8
20260507133233 64 123 0.0 0.0 0.00 1.21 1.21 99 1011.7
20260507132731 63 107 0.0 0.0 0.00 1.21 1.21 99 1011.9
20260507132227 63 137 0.0 0.0 0.00 1.21 1.21 99 1011.7
20260507131724 64 116 0.0 0.0 0.00 1.21 1.21 99 1011.9
20260507131221 64 137 0.0 0.0 0.00 1.21 1.21 99 1011.7
20260507130718 64 88 0.0 0.0 0.00 1.21 1.21 99 1011.4
20260507130216 64 106 0.0 0.0 0.00 1.21 1.21 99 1011.4
20260507125714 64 118 0.0 0.0 0.00 1.21 1.21 99 1011.4
20260507125212 63 103 0.0 0.0 0.00 1.21 1.21 99 1011.1
20260507124708 63 85 0.0 0.0 0.00 1.21 1.21 99 1010.9
20260507124205 63 109 0.0 0.0 0.00 1.21 1.21 99 1010.6
20260507123703 63 99 0.0 0.0 0.00 1.21 1.21 99 1010.7
20260507123200 63 99 0.0 0.0 0.00 1.21 1.21 99 1010.6
20260507122655 63 101 0.0 0.0 0.00 1.21 1.21 99 1010.3
20260507122151 63 135 0.0 0.0 0.00 1.21 1.21 99 1010.4
20260507121648 63 131 0.0 0.0 0.00 1.21 1.21 99 1010.4
20260507121144 63 102 0.0 0.0 0.00 1.21 1.21 99 1010.2
20260507120640 63 99 0.0 0.0 0.00 1.21 1.21 99 1010.0
20260507120137 63 111 0.0 0.0 0.07 1.21 1.21 99 1010.4
20260507115633 63 114 0.0 0.0 0.12 1.21 1.21 99 1010.2
20260507115129 63 115 0.0 0.0 0.17 1.20 1.20 99 1010.0
20260507114625 63 89 1.0 1.0 0.31 1.19 1.19 99 1010.4
20260507114122 63 137 0.0 0.0 0.38 1.17 1.17 99 1010.8
20260507113620 63 120 0.0 0.0 0.31 1.14 1.14 99 1010.7
20260507113116 63 123 0.0 0.0 0.12 1.11 1.11 99 1010.8
20260507112614 63 122 0.0 0.0 0.05 1.09 1.09 99 1010.9
20260507112111 63 80 0.0 0.0 0.17 1.09 1.09 99 1010.2
20260507111608 63 153 0.0 0.0 0.73 1.08 1.08 99 1010.1
20260507111104 63 93 0.0 1.0 1.04 1.06 1.06 99 1009.8
20260507110601 63 142 0.0 0.0 0.83 0.98 0.98 99 1010.8
20260507110057 63 129 0.0 0.0 0.42 0.90 0.90 99 1010.5
20260507105554 63 116 0.0 0.0 0.19 0.84 0.84 99 1010.5
20260507105050 63 111 0.0 0.0 0.12 0.82 0.82 99 1009.9
20260507104548 63 109 0.0 0.0 0.12 0.82 0.82 99 1009.8
20260507104044 63 85 0.0 0.0 0.00 0.80 0.80 99 1009.9
20260507103540 63 112 0.0 0.0 0.00 0.80 0.80 99 1009.4
20260507103037 63 114 0.0 0.0 0.00 0.80 0.80 99 1009.3
20260507102534 63 149 0.0 0.0 0.00 0.80 0.80 99 1009.2
20260507102031 63 117 0.0 0.0 0.00 0.80 0.80 99 1009.4
20260507101525 63 81 0.0 0.0 0.00 0.80 0.80 99 1009.4
20260507101022 63 111 0.0 0.0 0.07 0.80 0.80 99 1009.4
20260507100520 63 97 0.0 0.0 0.19 0.80 0.80 99 1009.9
20260507100018 63 145 0.0 0.0 0.35 0.79 0.79 99 1009.9
20260507095515 63 85 0.0 1.0 1.02 0.77 0.77 99 1009.7
20260507095011 64 122 0.0 0.0 0.83 0.74 0.74 99 1010.3
20260507094508 63 81 1.0 1.0 0.05 0.61 0.61 99 1011.0
20260507094005 63 110 0.0 0.0 0.00 0.60 0.60 99 1010.4
20260507093502 63 100 0.0 0.0 0.07 0.60 0.60 99 1009.8
20260507093001 63 131 0.0 0.0 0.19 0.60 0.60 99 1009.4
20260507092456 63 113 0.0 0.0 0.12 0.59 0.59 99 1009.7
20260507091954 63 99 0.0 0.0 0.00 0.57 0.57 99 1009.5
20260507091450 63 143 0.0 0.0 0.00 0.57 0.57 99 1009.7
20260507090946 63 111 0.0 0.0 0.00 0.57 0.57 99 1009.4
20260507090442 63 105 0.0 0.0 0.00 0.57 0.57 99 1009.7
20260507085939 63 83 0.0 0.0 0.00 0.57 0.57 99 1009.9
20260507085436 63 116 0.0 0.0 0.00 0.57 0.57 99 1009.8
20260507084933 63 120 0.0 0.0 0.00 0.57 0.57 99 1009.6
20260507084430 63 133 0.0 0.0 0.00 0.57 0.57 99 1009.7
20260507083927 63 115 0.0 0.0 0.00 0.57 0.57 99 1009.7
20260507083423 63 98 0.0 0.0 0.00 0.57 0.57 99 1009.5
20260507082920 63 87 0.0 0.0 0.05 0.57 0.57 99 1009.5
20260507082416 63 109 0.0 0.0 0.05 0.57 0.57 99 1009.6
20260507081913 63 123 0.0 0.0 0.00 0.56 0.56 99 1009.3
20260507081409 63 112 0.0 0.0 0.00 0.56 0.56 99 1009.9
20260507080906 63 133 0.0 0.0 0.00 0.56 0.56 99 1010.1
20260507080402 63 138 0.0 0.0 0.00 0.56 0.56 99 1010.1
20260507075857 63 152 0.0 0.0 0.00 0.56 0.56 99 1009.7
20260507075353 63 126 0.0 0.0 0.00 0.56 0.56 99 1009.4
20260507074850 63 116 0.0 0.0 0.00 0.56 0.56 99 1009.5
20260507074347 63 106 0.0 0.0 0.00 0.56 0.56 99 1009.8
20260507073845 63 126 0.0 0.0 0.00 0.56 0.56 99 1010.1
20260507073341 63 121 0.0 0.0 0.00 0.56 0.56 99 1010.1
20260507072838 63 126 0.0 0.0 0.00 0.56 0.56 99 1010.0
20260507072336 64 130 0.0 0.0 0.00 0.56 0.56 99 1010.1
20260507071833 63 122 0.0 0.0 0.07 0.56 0.56 99 1010.2
20260507071330 64 124 0.0 0.0 0.12 0.56 0.56 99 1010.1
20260507070826 64 116 0.0 0.0 0.12 0.55 0.55 99 1010.2
20260507070324 64 122 0.0 0.0 0.14 0.54 0.54 99 1010.5
20260507065820 64 108 0.0 0.0 0.12 0.53 0.53 99 1010.7
20260507065317 64 122 0.0 0.0 0.24 0.52 0.52 99 1010.7
20260507064814 64 117 0.0 0.0 0.42 0.51 0.51 99 1010.7
20260507064313 64 117 0.0 1.0 0.83 0.48 0.48 99 1010.1
20260507063810 64 124 0.0 0.0 0.90 0.44 0.44 99 1011.0
20260507063307 64 128 0.0 0.0 0.42 0.34 0.34 99 1010.9
20260507062804 64 123 0.0 0.0 0.31 0.30 0.30 99 1011.7
20260507062301 64 111 0.0 0.0 0.24 0.27 0.27 99 1011.2
20260507061759 64 119 0.0 0.0 0.24 0.25 0.25 99 1011.6
20260507061256 64 111 0.0 0.0 0.19 0.23 0.23 99 1011.6
20260507060755 64 90 0.0 0.0 0.24 0.21 0.21 99 1011.7
20260507060251 64 141 0.0 0.0 0.35 0.20 0.20 99 1011.3
20260507055747 64 129 0.0 0.0 0.26 0.17 0.17 99 1011.1
20260507055243 64 120 0.0 0.0 0.12 0.15 0.15 99 1011.3
20260507054739 64 120 0.0 0.0 0.05 0.13 0.13 99 1011.1
20260507054236 64 130 0.0 0.0 0.12 0.13 0.13 99 1011.7
20260507053733 64 111 0.0 0.0 0.07 0.12 0.12 99 1011.3
20260507053231 64 116 0.0 0.0 0.05 0.11 0.11 99 1011.6
20260507052730 64 104 0.0 0.0 0.05 0.11 0.11 99 1011.9
20260507052225 64 109 0.0 0.0 0.07 0.10 0.10 99 1012.0
20260507051724 64 99 0.0 0.0 0.07 0.10 0.10 99 1011.9
20260507051220 64 111 0.0 0.0 0.00 0.09 0.09 99 1012.0
20260507050717 64 123 0.0 0.0 0.00 0.09 0.09 99 1011.8
20260507050214 64 126 0.0 0.0 0.05 0.09 0.09 99 1011.4
20260507045711 64 108 0.0 0.0 0.05 0.09 0.09 99 1011.9
20260507045207 64 116 0.0 0.0 0.07 0.08 0.08 99 1012.2
20260507044704 64 94 0.0 0.0 0.12 0.08 0.08 99 1011.7
20260507044201 64 121 0.0 0.0 0.12 0.07 0.07 99 1012.0
20260507043657 64 112 0.0 0.0 0.12 0.06 0.06 99 1011.8
20260507043154 64 102 0.0 0.0 0.19 0.06 0.06 99 1012.1
20260507042650 64 101 0.0 0.0 0.19 0.05 0.05 99 1012.4
20260507042145 64 125 0.0 0.0 0.19 0.03 0.03 99 1012.4
20260507041643 64 158 0.0 1.0 0.12 0.02 0.02 99 1012.8
20260507041139 64 158 0.0 0.0 0.00 0.00 0.00 99 1012.6
20260507040636 64 116 0.0 0.0 0.00 0.00 0.00 99 1012.2
20260507040132 64 142 0.0 0.0 0.00 0.00 0.00 99 1012.4
20260507035628 64 111 0.0 0.0 0.00 0.99 0.99 99 1011.9
20260507035124 64 112 0.0 0.0 0.00 0.99 0.99 99 1011.7
20260507034621 64 104 0.0 0.0 0.00 0.99 0.99 99 1011.6
20260507034119 64 99 0.0 0.0 0.00 0.99 0.99 99 1011.7
20260507033617 64 98 0.0 0.0 0.00 0.99 0.99 99 1011.6
20260507033114 64 100 0.0 0.0 0.00 0.99 0.99 99 1011.8
20260507032612 64 130 0.0 0.0 0.00 0.99 0.99 99 1011.8
20260507032108 64 119 0.0 0.0 0.00 0.99 0.99 99 1011.6
20260507031604 64 112 0.0 0.0 0.00 0.99 0.99 99 1011.7
20260507031101 64 138 0.0 0.0 0.00 0.99 0.99 99 1011.8
20260507030557 64 108 0.0 0.0 0.00 0.99 0.99 99 1012.0
20260507030056 64 113 0.0 0.0 0.00 0.99 0.99 99 1011.9
20260507025553 64 120 0.0 0.0 0.00 0.99 0.99 99 1012.2
20260507025049 64 128 0.0 0.0 0.00 0.99 0.99 99 1012.3
20260507024547 64 120 0.0 0.0 0.00 0.99 0.99 99 1012.4
20260507024044 64 119 0.0 0.0 0.00 0.99 0.99 99 1012.6
20260507023539 64 108 0.0 0.0 0.00 0.99 0.99 99 1012.5
20260507023038 64 108 0.0 0.0 0.00 0.99 0.99 99 1012.1
20260507022534 64 108 0.0 0.0 0.00 0.99 0.99 99 1012.4
20260507022029 64 114 0.0 0.0 0.05 0.99 0.99 99 1012.2
20260507021525 64 123 0.0 0.0 0.05 0.99 0.99 99 1012.6
20260507021022 64 118 0.0 0.0 0.00 0.98 0.98 99 1012.3
20260507020520 64 119 0.0 0.0 0.07 0.98 0.98 99 1012.1
20260507020016 64 107 0.0 0.0 0.35 0.98 0.98 99 1012.1
20260507015515 64 123 0.0 0.0 0.35 0.97 0.97 99 1012.2
20260507015012 64 94 0.0 0.0 0.12 0.93 0.93 99 1012.4
20260507014508 64 125 0.0 0.0 0.00 0.91 0.91 99 1012.3
20260507014004 64 95 0.0 1.0 0.00 0.91 0.91 99 1011.9
20260507013500 64 72 0.0 0.0 0.05 0.91 0.91 99 1012.1
20260507012958 65 97 0.0 0.0 0.31 0.91 0.91 99 1012.0
20260507012455 65 100 0.0 0.0 0.78 0.90 0.90 99 1012.0
20260507011951 64 84 0.0 0.0 0.78 0.87 0.87 99 1012.1
20260507011448 64 109 0.0 0.0 0.38 0.77 0.77 99 1012.2
20260507010944 65 88 0.0 0.0 0.35 0.74 0.74 99 1012.0
20260507010439 64 113 0.0 0.0 0.61 0.72 0.72 99 1012.1